Time,TemperatureF,DewpointF,PressureIn,WindDirection,WindDirectionDegrees,WindSpeedMPH,WindSpeedGustMPH,Humidity,HourlyPrecipIn,Conditions,Clouds,dailyrainin,SoftwareType,DateUTC
2013-05-01 00:00:00,57.2,55.0,29.89,SE,146,4.0,7.0,92,0.00,,,0.00,weatherlink.com 1.10,2013-05-01 07:00:00,
2013-05-01 00:07:00,57.1,55.1,29.89,SE,144,4.0,9.0,93,0.00,,---,0.00,VWS V14.00,2013-05-01 07:07:00,
2013-05-01 00:18:00,57.1,55.0,29.89,SE,134,3.0,7.0,93,0.00,,,0.00,weatherlink.com 1.10,2013-05-01 07:18:00,
2013-05-01 00:30:00,57.2,55.2,29.89,ESE,109,0.0,8.0,93,0.00,,---,0.00,VWS V14.00,2013-05-01 07:30:00,
2013-05-01 00:35:00,57.1,55.0,29.89,ESE,109,1.0,5.0,93,0.00,,,0.00,weatherlink.com 1.10,2013-05-01 07:35:00,
2013-05-01 00:36:00,57.2,55.2,29.89,ESE,109,0.0,8.0,93,0.00,,---,0.00,VWS V14.00,2013-05-01 07:36:00,
2013-05-01 00:52:00,57.3,55.0,29.90,ESE,119,1.0,4.0,93,0.00,,,0.00,weatherlink.com 1.10,2013-05-01 07:52:00,
2013-05-01 01:00:00,57.5,55.5,29.89,ESE,121,1.0,4.0,93,0.00,,---,0.00,VWS V14.00,2013-05-01 08:00:00,
2013-05-01 01:07:00,57.5,55.5,29.89,ESE,121,1.0,4.0,93,0.00,,---,0.00,VWS V14.00,2013-05-01 08:07:00,
2013-05-01 01:27:00,57.8,56.0,29.89,ESE,123,1.0,4.0,92,0.00,,,0.00,weatherlink.com 1.10,2013-05-01 08:27:00,
2013-05-01 01:30:00,57.8,55.5,29.89,SE,137,2.0,6.0,92,0.00,,---,0.00,VWS V14.00,2013-05-01 08:30:00,
2013-05-01 01:36:00,57.8,55.5,29.89,SE,137,2.0,6.0,92,0.00,,---,0.00,VWS V14.00,2013-05-01 08:36:00,
2013-05-01 01:44:00,57.8,56.0,29.89,ESE,103,0.0,4.0,92,0.00,,,0.00,weatherlink.com 1.10,2013-05-01 08:44:00,
2013-05-01 02:00:00,57.7,55.7,29.89,SSE,158,1.0,6.0,93,0.00,,---,0.00,VWS V14.00,2013-05-01 09:00:00,
2013-05-01 02:01:00,57.8,56.0,29.89,SE,134,4.0,7.0,93,0.00,,,0.00,weatherlink.com 1.10,2013-05-01 09:01:00,
2013-05-01 02:06:00,57.7,55.7,29.89,SSE,158,1.0,6.0,93,0.00,,---,0.00,VWS V14.00,2013-05-01 09:06:00,
2013-05-01 02:19:00,57.8,56.0,29.89,SSE,155,3.0,5.0,92,0.00,,,0.00,weatherlink.com 1.10,2013-05-01 09:19:00,
2013-05-01 02:30:00,57.8,55.8,29.89,East,91,3.0,6.0,93,0.00,,---,0.00,VWS V14.00,2013-05-01 09:30:00,
2013-05-01 02:35:00,57.8,56.0,29.89,ESE,111,2.0,6.0,93,0.00,,,0.00,weatherlink.com 1.10,2013-05-01 09:35:00,
2013-05-01 02:36:00,57.8,55.8,29.89,East,91,3.0,6.0,93,0.00,,---,0.00,VWS V14.00,2013-05-01 09:36:00,
2013-05-01 02:53:00,57.8,56.0,29.89,ESE,113,2.0,3.0,93,0.00,,,0.00,weatherlink.com 1.10,2013-05-01 09:53:00,
2013-05-01 03:00:00,57.7,55.7,29.89,ESE,113,0.0,3.0,93,0.00,,---,0.00,VWS V14.00,2013-05-01 10:00:00,
2013-05-01 03:07:00,57.7,55.7,29.89,ESE,113,0.0,3.0,93,0.00,,---,0.00,VWS V14.00,2013-05-01 10:07:00,
2013-05-01 03:11:00,57.7,56.0,29.89,ESE,113,0.0,2.0,93,0.00,,,0.00,weatherlink.com 1.10,2013-05-01 10:11:00,
2013-05-01 03:28:00,57.7,56.0,29.89,ESE,107,2.0,3.0,93,0.00,,,0.00,weatherlink.com 1.10,2013-05-01 10:28:00,
2013-05-01 03:30:00,57.7,55.7,29.89,ESE,107,0.0,3.0,93,0.00,,---,0.00,VWS V14.00,2013-05-01 10:30:00,
2013-05-01 03:37:00,57.7,55.7,29.89,ESE,107,0.0,3.0,93,0.00,,---,0.00,VWS V14.00,2013-05-01 10:37:00,
2013-05-01 03:44:00,57.7,56.0,29.89,ESE,107,0.0,2.0,93,0.00,,,0.00,weatherlink.com 1.10,2013-05-01 10:44:00,
2013-05-01 04:00:00,57.7,55.7,29.89,SE,145,1.0,4.0,93,0.00,,---,0.00,VWS V14.00,2013-05-01 11:00:00,
2013-05-01 04:02:00,57.7,56.0,29.89,ESE,107,2.0,2.0,93,0.00,,,0.00,weatherlink.com 1.10,2013-05-01 11:02:00,
2013-05-01 04:07:00,57.7,55.7,29.89,SE,145,1.0,4.0,93,0.00,,---,0.00,VWS V14.00,2013-05-01 11:07:00,
2013-05-01 04:19:00,57.7,56.0,29.89,SE,144,0.0,2.0,93,0.01,,,0.01,weatherlink.com 1.10,2013-05-01 11:19:00,
2013-05-01 04:30:00,57.7,56.0,29.89,SE,146,2.0,3.0,94,0.01,,---,0.01,VWS V14.00,2013-05-01 11:30:00,
2013-05-01 04:36:00,57.7,56.0,29.89,SE,146,1.0,3.0,94,0.01,,,0.01,weatherlink.com 1.10,2013-05-01 11:36:00,
2013-05-01 04:53:00,57.7,56.0,29.89,SE,143,2.0,6.0,94,0.01,,,0.01,weatherlink.com 1.10,2013-05-01 11:53:00,
2013-05-01 05:00:00,57.7,55.7,29.90,South,178,1.0,6.0,93,0.01,,---,0.01,VWS V14.00,2013-05-01 12:00:00,
2013-05-01 05:06:00,57.7,55.7,29.90,South,178,1.0,6.0,93,0.01,,---,0.01,VWS V14.00,2013-05-01 12:06:00,
2013-05-01 05:11:00,57.8,56.0,29.90,SSE,160,2.0,4.0,93,0.00,,,0.01,weatherlink.com 1.10,2013-05-01 12:11:00,
2013-05-01 05:27:00,58.1,56.0,29.90,South,173,4.0,6.0,92,0.00,,,0.01,weatherlink.com 1.10,2013-05-01 12:27:00,
2013-05-01 05:30:00,58.2,55.9,29.91,SSE,161,3.0,6.0,92,0.01,,---,0.01,VWS V14.00,2013-05-01 12:30:00,
2013-05-01 05:37:00,58.2,55.9,29.91,SSE,161,3.0,6.0,92,0.01,,---,0.01,VWS V14.00,2013-05-01 12:37:00,
2013-05-01 05:45:00,58.2,56.0,29.91,SE,144,3.0,5.0,91,0.00,,,0.01,weatherlink.com 1.10,2013-05-01 12:45:00,
2013-05-01 06:00:00,58.4,55.8,29.92,SSE,166,1.0,5.0,91,0.00,,---,0.01,VWS V14.00,2013-05-01 13:00:00,
2013-05-01 06:02:00,58.3,56.0,29.91,SSE,168,0.0,4.0,91,0.00,,,0.01,weatherlink.com 1.10,2013-05-01 13:02:00,
2013-05-01 06:20:00,58.4,56.0,29.92,SSE,159,3.0,4.0,92,0.00,,,0.01,weatherlink.com 1.10,2013-05-01 13:20:00,
2013-05-01 06:30:00,58.4,56.1,29.92,SSE,165,3.0,5.0,92,0.00,,---,0.01,VWS V14.00,2013-05-01 13:30:00,
2013-05-01 06:36:00,58.4,56.0,29.93,SSE,165,1.0,5.0,92,0.00,,,0.01,weatherlink.com 1.10,2013-05-01 13:36:00,
2013-05-01 06:37:00,58.4,56.1,29.92,SSE,165,3.0,5.0,92,0.00,,---,0.01,VWS V14.00,2013-05-01 13:37:00,
2013-05-01 06:54:00,58.4,56.0,29.93,SSE,158,0.0,3.0,92,0.00,,,0.01,weatherlink.com 1.10,2013-05-01 13:54:00,
2013-05-01 07:00:00,58.3,56.0,29.94,SSE,158,1.0,4.0,92,0.00,,---,0.01,VWS V14.00,2013-05-01 14:00:00,
2013-05-01 07:07:00,58.3,56.0,29.94,SSE,158,1.0,4.0,92,0.00,,---,0.01,VWS V14.00,2013-05-01 14:07:00,
2013-05-01 07:11:00,58.4,56.0,29.94,SSE,158,0.0,3.0,92,0.00,,,0.01,weatherlink.com 1.10,2013-05-01 14:11:00,
2013-05-01 07:28:00,58.5,56.0,29.95,South,178,0.0,3.0,92,0.00,,,0.01,weatherlink.com 1.10,2013-05-01 14:28:00,
2013-05-01 07:30:00,58.6,56.3,29.95,South,180,0.0,3.0,92,0.00,,---,0.01,VWS V14.00,2013-05-01 14:30:00,
2013-05-01 07:37:00,58.6,56.3,29.95,South,180,0.0,3.0,92,0.00,,---,0.01,VWS V14.00,2013-05-01 14:37:00,
2013-05-01 07:45:00,58.7,56.0,29.95,South,186,2.0,4.0,92,0.00,,,0.01,weatherlink.com 1.10,2013-05-01 14:45:00,
2013-05-01 08:00:00,58.9,56.3,29.97,SSE,150,2.0,4.0,91,0.00,,---,0.01,VWS V14.00,2013-05-01 15:00:00,
2013-05-01 08:03:00,58.9,56.0,29.96,South,177,1.0,3.0,91,0.00,,,0.01,weatherlink.com 1.10,2013-05-01 15:03:00,
2013-05-01 08:07:00,58.9,56.3,29.97,SSE,150,2.0,4.0,91,0.00,,---,0.01,VWS V14.00,2013-05-01 15:07:00,
2013-05-01 08:20:00,59.2,56.0,29.97,SSE,153,2.0,4.0,90,0.00,,,0.01,weatherlink.com 1.10,2013-05-01 15:20:00,
2013-05-01 08:30:00,59.9,56.3,29.97,SSW,195,2.0,5.0,88,0.00,,---,0.01,VWS V14.00,2013-05-01 15:30:00,
2013-05-01 08:37:00,59.9,56.3,29.97,SSW,195,2.0,5.0,88,0.00,,---,0.01,VWS V14.00,2013-05-01 15:37:00,
2013-05-01 08:55:00,60.2,57.0,29.97,SW,218,1.0,7.0,88,0.00,,,0.01,weatherlink.com 1.10,2013-05-01 15:55:00,
2013-05-01 09:00:00,60.5,56.3,29.98,South,172,2.0,6.0,86,0.00,,---,0.01,VWS V14.00,2013-05-01 16:00:00,
2013-05-01 09:07:00,60.5,56.3,29.98,South,172,2.0,6.0,86,0.00,,---,0.01,VWS V14.00,2013-05-01 16:07:00,
2013-05-01 09:11:00,60.5,56.0,29.98,South,176,1.0,5.0,86,0.00,,,0.01,weatherlink.com 1.10,2013-05-01 16:11:00,
2013-05-01 09:29:00,60.5,56.0,29.98,WSW,242,3.0,7.0,85,0.00,,,0.01,weatherlink.com 1.10,2013-05-01 16:29:00,
2013-05-01 09:30:00,60.6,55.8,29.98,SW,230,4.0,7.0,84,0.00,,---,0.01,VWS V14.00,2013-05-01 16:30:00,
2013-05-01 09:36:00,60.6,55.8,29.98,SW,230,4.0,7.0,84,0.00,,---,0.01,VWS V14.00,2013-05-01 16:36:00,
2013-05-01 09:47:00,61.0,56.0,29.98,WSW,254,9.0,9.0,82,0.00,,,0.01,weatherlink.com 1.10,2013-05-01 16:47:00,
2013-05-01 10:00:00,61.2,56.0,29.99,WSW,254,5.0,8.0,83,0.00,,---,0.01,VWS V14.00,2013-05-01 17:00:00,
2013-05-01 10:03:00,61.2,56.0,29.98,SSW,202,4.0,7.0,83,0.00,,,0.01,weatherlink.com 1.10,2013-05-01 17:03:00,
2013-05-01 10:07:00,61.2,56.0,29.99,WSW,254,5.0,8.0,83,0.00,,---,0.01,VWS V14.00,2013-05-01 17:07:00,
2013-05-01 10:21:00,61.4,55.0,30.00,SW,230,4.0,7.0,80,0.00,,,0.01,weatherlink.com 1.10,2013-05-01 17:21:00,
2013-05-01 10:30:00,62.8,56.5,30.00,SSW,210,4.0,8.0,80,0.00,,---,0.01,VWS V14.00,2013-05-01 17:30:00,
2013-05-01 10:37:00,62.8,56.5,30.00,SSW,210,4.0,8.0,80,0.00,,---,0.01,VWS V14.00,2013-05-01 17:37:00,
2013-05-01 10:55:00,62.4,56.0,30.00,West,279,1.0,8.0,80,0.00,,,0.01,weatherlink.com 1.10,2013-05-01 17:55:00,
2013-05-01 11:00:00,62.5,55.9,30.00,WSW,246,6.0,9.0,79,0.00,,---,0.01,VWS V14.00,2013-05-01 18:00:00,
2013-05-01 11:07:00,62.5,55.9,30.00,WSW,246,6.0,9.0,79,0.00,,---,0.01,VWS V14.00,2013-05-01 18:07:00,
2013-05-01 11:13:00,62.8,56.0,30.00,SW,219,8.0,11.0,78,0.00,,,0.01,weatherlink.com 1.10,2013-05-01 18:13:00,
2013-05-01 11:30:00,62.3,55.0,30.00,WNW,289,6.0,10.0,76,0.00,,,0.01,weatherlink.com 1.10,2013-05-01 18:30:00,
2013-05-01 11:37:00,62.8,56.2,30.00,SW,229,8.0,11.0,79,0.00,,---,0.01,VWS V14.00,2013-05-01 18:37:00,
2013-05-01 11:47:00,63.2,56.0,30.00,WSW,243,6.0,10.0,78,0.00,,,0.01,weatherlink.com 1.10,2013-05-01 18:47:00,
2013-05-01 12:00:00,62.7,56.1,30.00,WNW,289,4.0,12.0,79,0.00,,---,0.01,VWS V14.00,2013-05-01 19:00:00,
2013-05-01 12:05:00,62.8,56.0,30.00,WSW,254,11.0,12.0,77,0.00,,,0.01,weatherlink.com 1.10,2013-05-01 19:05:00,
2013-05-01 12:07:00,62.7,56.1,30.00,WNW,289,4.0,12.0,79,0.00,,---,0.01,VWS V14.00,2013-05-01 19:07:00,
2013-05-01 12:22:00,62.9,56.0,29.99,WNW,298,11.0,12.0,79,0.00,,,0.01,weatherlink.com 1.10,2013-05-01 19:22:00,
2013-05-01 12:30:00,62.3,56.1,29.99,South,180,8.0,12.0,80,0.00,,---,0.01,VWS V14.00,2013-05-01 19:30:00,
2013-05-01 12:37:00,62.3,56.1,29.99,South,180,8.0,12.0,80,0.00,,---,0.01,VWS V14.00,2013-05-01 19:37:00,
2013-05-01 12:39:00,62.4,56.0,29.99,South,178,3.0,13.0,79,0.00,,,0.01,weatherlink.com 1.10,2013-05-01 19:39:00,
2013-05-01 12:56:00,62.9,57.0,29.98,West,272,8.0,14.0,80,0.00,,,0.01,weatherlink.com 1.10,2013-05-01 19:56:00,
2013-05-01 13:00:00,62.8,56.2,29.98,WSW,240,7.0,14.0,79,0.00,,---,0.01,VWS V14.00,2013-05-01 20:00:00,
2013-05-01 13:07:00,62.8,56.2,29.98,WSW,240,7.0,14.0,79,0.00,,---,0.01,VWS V14.00,2013-05-01 20:07:00,
2013-05-01 13:14:00,62.3,56.0,29.98,WNW,294,11.0,14.0,80,0.00,,,0.01,weatherlink.com 1.10,2013-05-01 20:14:00,
2013-05-01 13:30:00,62.6,56.0,29.98,WNW,300,5.0,13.0,79,0.00,,---,0.01,VWS V14.00,2013-05-01 20:30:00,
2013-05-01 13:31:00,62.5,56.0,29.98,West,263,5.0,14.0,79,0.00,,,0.01,weatherlink.com 1.10,2013-05-01 20:31:00,
2013-05-01 13:37:00,62.6,56.0,29.98,WNW,300,5.0,13.0,79,0.00,,---,0.01,VWS V14.00,2013-05-01 20:37:00,
2013-05-01 13:48:00,62.3,56.0,29.98,NNW,329,7.0,14.0,79,0.00,,,0.01,weatherlink.com 1.10,2013-05-01 20:48:00,
2013-05-01 14:00:00,62.3,55.7,29.97,WNW,295,9.0,14.0,79,0.00,,---,0.01,VWS V14.00,2013-05-01 21:00:00,
2013-05-01 14:06:00,62.5,56.0,29.97,WNW,302,11.0,15.0,79,0.00,,,0.01,weatherlink.com 1.10,2013-05-01 21:06:00,
2013-05-01 14:07:00,62.3,55.7,29.97,WNW,295,9.0,14.0,79,0.00,,---,0.01,VWS V14.00,2013-05-01 21:07:00,
2013-05-01 14:23:00,63.4,56.0,29.97,WSW,242,6.0,13.0,78,0.00,,,0.01,weatherlink.com 1.10,2013-05-01 21:23:00,
2013-05-01 14:30:00,62.9,55.9,29.97,WNW,288,11.0,14.0,78,0.00,,---,0.01,VWS V14.00,2013-05-01 21:30:00,
2013-05-01 14:37:00,62.9,55.9,29.97,WNW,288,11.0,14.0,78,0.00,,---,0.01,VWS V14.00,2013-05-01 21:37:00,
2013-05-01 14:40:00,62.5,56.0,29.97,NW,319,11.0,14.0,79,0.00,,,0.01,weatherlink.com 1.10,2013-05-01 21:40:00,
2013-05-01 14:58:00,63.0,56.0,29.97,WNW,299,7.0,15.0,78,0.00,,,0.01,weatherlink.com 1.10,2013-05-01 21:58:00,
2013-05-01 15:00:00,63.4,56.4,29.97,NW,311,9.0,15.0,78,0.00,,---,0.01,VWS V14.00,2013-05-01 22:00:00,
2013-05-01 15:07:00,63.4,56.4,29.97,NW,311,9.0,15.0,78,0.00,,---,0.01,VWS V14.00,2013-05-01 22:07:00,
2013-05-01 15:15:00,62.7,56.0,29.97,West,265,6.0,15.0,79,0.00,,,0.01,weatherlink.com 1.10,2013-05-01 22:15:00,
2013-05-01 15:30:00,62.9,56.3,29.97,West,276,10.0,16.0,79,0.00,,---,0.01,VWS V14.00,2013-05-01 22:30:00,
2013-05-01 15:32:00,62.7,56.0,29.97,NW,319,6.0,16.0,79,0.00,,,0.01,weatherlink.com 1.10,2013-05-01 22:32:00,
2013-05-01 15:37:00,62.9,56.3,29.97,West,276,10.0,16.0,79,0.00,,---,0.01,VWS V14.00,2013-05-01 22:37:00,
2013-05-01 15:50:00,62.8,56.0,29.97,NW,309,9.0,15.0,78,0.00,,,0.01,weatherlink.com 1.10,2013-05-01 22:50:00,
2013-05-01 16:00:00,62.3,56.1,29.97,West,277,8.0,16.0,80,0.00,,---,0.01,VWS V14.00,2013-05-01 23:00:00,
2013-05-01 16:07:00,62.3,56.1,29.97,West,277,8.0,16.0,80,0.00,,---,0.01,VWS V14.00,2013-05-01 23:07:00,
2013-05-01 16:25:00,62.3,56.0,29.97,WNW,287,8.0,14.0,80,0.00,,,0.01,weatherlink.com 1.10,2013-05-01 23:25:00,
2013-05-01 16:30:00,62.6,56.3,29.97,West,267,4.0,16.0,80,0.00,,---,0.01,VWS V14.00,2013-05-01 23:30:00,
2013-05-01 16:37:00,62.6,56.3,29.97,West,267,4.0,16.0,80,0.00,,---,0.01,VWS V14.00,2013-05-01 23:37:00,
2013-05-01 16:42:00,62.8,57.0,29.97,WNW,289,10.0,15.0,80,0.00,,,0.01,weatherlink.com 1.10,2013-05-01 23:42:00,
2013-05-01 16:59:00,62.6,56.0,29.97,WNW,294,9.0,14.0,80,0.00,,,0.01,weatherlink.com 1.10,2013-05-01 23:59:00,
2013-05-01 17:00:00,62.4,56.5,29.97,West,272,7.0,15.0,81,0.00,,---,0.01,VWS V14.00,2013-05-02 00:00:00,
2013-05-01 17:07:00,62.4,56.5,29.97,West,272,7.0,15.0,81,0.00,,---,0.01,VWS V14.00,2013-05-02 00:07:00,
2013-05-01 17:17:00,62.9,57.0,29.97,West,263,10.0,13.0,80,0.00,,,0.01,weatherlink.com 1.10,2013-05-02 00:17:00,
2013-05-01 17:30:00,62.8,56.2,29.97,WNW,285,8.0,14.0,79,0.00,,---,0.01,VWS V14.00,2013-05-02 00:30:00,
2013-05-01 17:34:00,62.6,56.0,29.97,WSW,242,9.0,14.0,79,0.00,,,0.01,weatherlink.com 1.10,2013-05-02 00:34:00,
2013-05-01 17:37:00,62.8,56.2,29.97,WNW,285,8.0,14.0,79,0.00,,---,0.01,VWS V14.00,2013-05-02 00:37:00,
2013-05-01 17:51:00,63.1,56.0,29.97,WNW,283,7.0,13.0,77,0.00,,,0.01,weatherlink.com 1.10,2013-05-02 00:51:00,
2013-05-01 18:00:00,62.9,55.9,29.97,WSW,254,5.0,13.0,78,0.00,,---,0.01,VWS V14.00,2013-05-02 01:00:00,
2013-05-01 18:07:00,62.9,55.9,29.97,WSW,254,5.0,13.0,78,0.00,,---,0.01,VWS V14.00,2013-05-02 01:07:00,
2013-05-01 18:27:00,62.8,57.0,29.98,NW,305,5.0,11.0,80,0.00,,,0.01,weatherlink.com 1.10,2013-05-02 01:27:00,
2013-05-01 18:30:00,62.6,56.7,29.98,WSW,241,5.0,12.0,81,0.00,,---,0.01,VWS V14.00,2013-05-02 01:30:00,
2013-05-01 18:37:00,62.6,56.7,29.98,WSW,241,5.0,12.0,81,0.00,,---,0.01,VWS V14.00,2013-05-02 01:37:00,
2013-05-01 18:43:00,62.4,57.0,29.98,WSW,257,3.0,8.0,82,0.00,,,0.01,weatherlink.com 1.10,2013-05-02 01:43:00,
2013-05-01 19:00:00,61.5,57.0,29.98,WNW,286,4.0,8.0,85,0.00,,---,0.01,VWS V14.00,2013-05-02 02:00:00,
2013-05-01 19:01:00,61.6,57.0,29.98,WSW,253,7.0,7.0,85,0.00,,,0.01,weatherlink.com 1.10,2013-05-02 02:01:00,
2013-05-01 19:07:00,61.5,57.0,29.98,WNW,286,4.0,8.0,85,0.00,,---,0.01,VWS V14.00,2013-05-02 02:07:00,
2013-05-01 19:19:00,61.0,57.0,29.98,WSW,244,6.0,8.0,86,0.00,,,0.01,weatherlink.com 1.10,2013-05-02 02:19:00,
2013-05-01 19:30:00,60.5,56.3,30.00,WNW,296,6.0,8.0,86,0.00,,---,0.01,VWS V14.00,2013-05-02 02:30:00,
2013-05-01 19:35:00,60.5,56.0,29.99,West,271,4.0,8.0,86,0.00,,,0.01,weatherlink.com 1.10,2013-05-02 02:35:00,
2013-05-01 19:37:00,60.5,56.3,30.00,WNW,296,6.0,8.0,86,0.00,,---,0.01,VWS V14.00,2013-05-02 02:37:00,
2013-05-01 19:53:00,60.4,57.0,30.00,West,273,4.0,8.0,87,0.00,,,0.01,weatherlink.com 1.10,2013-05-02 02:53:00,
2013-05-01 20:00:00,60.4,56.5,30.01,WSW,255,1.0,8.0,87,0.00,,---,0.01,VWS V14.00,2013-05-02 03:00:00,
2013-05-01 20:07:00,60.4,56.5,30.01,WSW,255,1.0,8.0,87,0.00,,---,0.01,VWS V14.00,2013-05-02 03:07:00,
2013-05-01 20:28:00,60.2,57.0,30.02,West,270,2.0,4.0,88,0.00,,,0.01,weatherlink.com 1.10,2013-05-02 03:28:00,
2013-05-01 20:30:00,60.1,56.5,30.03,WSW,244,0.0,6.0,88,0.00,,---,0.01,VWS V14.00,2013-05-02 03:30:00,
2013-05-01 20:37:00,60.1,56.5,30.03,WSW,244,0.0,6.0,88,0.00,,---,0.01,VWS V14.00,2013-05-02 03:37:00,
2013-05-01 20:46:00,60.1,57.0,30.03,WSW,241,3.0,4.0,88,0.00,,,0.01,weatherlink.com 1.10,2013-05-02 03:46:00,
2013-05-01 21:00:00,59.9,56.3,30.04,WNW,294,2.0,5.0,88,0.00,,---,0.01,VWS V14.00,2013-05-02 04:00:00,
2013-05-01 21:02:00,60.0,57.0,30.03,WNW,294,3.0,4.0,88,0.00,,,0.01,weatherlink.com 1.10,2013-05-02 04:02:00,
2013-05-01 21:07:00,59.9,56.3,30.04,WNW,294,2.0,5.0,88,0.00,,---,0.01,VWS V14.00,2013-05-02 04:07:00,
2013-05-01 21:20:00,59.7,56.0,30.04,WSW,248,3.0,4.0,88,0.00,,,0.01,weatherlink.com 1.10,2013-05-02 04:20:00,
2013-05-01 21:30:00,59.8,56.2,30.06,WSW,257,2.0,4.0,88,0.00,,---,0.01,VWS V14.00,2013-05-02 04:30:00,
2013-05-01 21:36:00,59.8,56.0,30.06,WSW,257,1.0,3.0,88,0.00,,,0.01,weatherlink.com 1.10,2013-05-02 04:36:00,
2013-05-01 21:37:00,59.8,56.2,30.06,WSW,257,2.0,4.0,88,0.00,,---,0.01,VWS V14.00,2013-05-02 04:37:00,
2013-05-01 21:54:00,59.8,57.0,30.06,WSW,257,1.0,4.0,89,0.00,,,0.01,weatherlink.com 1.10,2013-05-02 04:54:00,
2013-05-01 22:00:00,59.8,56.6,30.07,WSW,257,1.0,3.0,89,0.00,,---,0.01,VWS V14.00,2013-05-02 05:00:00,
2013-05-01 22:07:00,59.8,56.6,30.07,WSW,257,1.0,3.0,89,0.00,,---,0.01,VWS V14.00,2013-05-02 05:07:00,
2013-05-01 22:11:00,59.8,57.0,30.07,WSW,257,1.0,3.0,89,0.00,,,0.01,weatherlink.com 1.10,2013-05-02 05:11:00,
2013-05-01 22:29:00,59.6,56.0,30.07,WSW,257,0.0,3.0,89,0.00,,,0.01,weatherlink.com 1.10,2013-05-02 05:29:00,
2013-05-01 22:30:00,59.6,56.4,30.08,WSW,257,0.0,3.0,89,0.00,,---,0.01,VWS V14.00,2013-05-02 05:30:00,
2013-05-01 22:37:00,59.6,56.4,30.08,WSW,257,0.0,3.0,89,0.00,,---,0.01,VWS V14.00,2013-05-02 05:37:00,
2013-05-01 22:45:00,59.4,56.0,30.08,NW,311,0.0,3.0,89,0.00,,,0.01,weatherlink.com 1.10,2013-05-02 05:45:00,
2013-05-01 23:00:00,59.4,56.2,30.08,NW,311,1.0,3.0,89,0.00,,---,0.01,VWS V14.00,2013-05-02 06:00:00,
2013-05-01 23:03:00,59.4,56.0,30.08,NW,311,0.0,2.0,89,0.00,,,0.01,weatherlink.com 1.10,2013-05-02 06:03:00,
2013-05-01 23:07:00,59.4,56.2,30.08,NW,311,1.0,3.0,89,0.00,,---,0.01,VWS V14.00,2013-05-02 06:07:00,
2013-05-01 23:20:00,59.1,56.0,30.08,NW,311,0.0,0.0,89,0.00,,,0.01,weatherlink.com 1.10,2013-05-02 06:20:00,
2013-05-01 23:30:00,58.4,55.5,30.08,ENE,70,0.0,2.0,90,0.00,,---,0.01,VWS V14.00,2013-05-02 06:30:00,
2013-05-01 23:37:00,58.4,55.5,30.08,ENE,70,0.0,2.0,90,0.00,,---,0.01,VWS V14.00,2013-05-02 06:37:00,
2013-05-01 23:38:00,58.4,56.0,30.08,ENE,70,0.0,1.0,90,0.00,,,0.01,weatherlink.com 1.10,2013-05-02 06:38:00,
2013-05-01 23:54:00,57.9,55.0,30.09,ENE,70,0.0,2.0,90,0.00,,,0.01,weatherlink.com 1.10,2013-05-02 06:54:00,